User: anonymous   Login
Location: Unspecified
(0.0000°N, 0.0000°E)
Time: 12:40:48
(UTC+00:00)
Language:

GRACE-1 - Orbit

View from above orbital plane
View from above orbital plane
View from above satellite
View from above satellite

Ground track
Ground track

The orbit data is extracted from the following two-line orbital elements,

1 27391U 02012A   17291.61387354 +.00023456 +00000-0 +89335-4 0  9996
2 27391 088.9808 302.6218 0004360 163.8393 304.4281 15.87400700195923
Epoch (UTC): 18 October 2017 14:43:58
Eccentricity: 0.0004360
inclination: 88.9808°
perigee height: 306 km
apogee height: 312 km
right ascension of ascending node: 302.6218°
argument of perigee: 163.8393°
revolutions per day: 15.87400700
mean anomaly at epoch: 304.4281°
orbit number at epoch: 19592

The dashed part of the orbit path shows where the satellite is in the earth's shadow,  

DLR